Weather History for Beaufort, SC

Change the Weather History Date:

Tuesday, May 7, 2013

  Actual Average (KNBC) Record (KNBC)
Temperature  
Mean Temperature 62 °F -  
Max Temperature 69 °F 81 °F 93 °F (1959)
Min Temperature 55 °F 60 °F 44 °F (1957)
Degree Days  
Heating Degree Days 3    
Growing Degree Days 12 (Base 50)    
Moisture  
Dew Point 55 °F    
Average Humidity 78    
Maximum Humidity 100    
Minimum Humidity 56    
Precipitation  
Precipitation 0.00 in - - ()
Sea Level Pressure  
Sea Level Pressure 29.94 in    
Wind  
Wind Speed 3 mph (SW)    
Max Wind Speed 12 mph    
Max Gust Speed 20 mph    
Visibility 7 miles    
Events Rain , Thunderstorm    
Averages and records for this station are not official NWS values.
T = Trace of Precipitation, MM = Missing Value Source: NWS Daily Summary

Daily Weather History Graph

Daily Weather History Graph

Search for Another Location

Airport:

Trip Planner

Search our weather history database for the weather conditions in past years. The results will help you decide how hot, cold, wet, or windy it might be!

Date:

Astronomy

May. 07, 2013 Rise Set
Actual Time 6:30 AM EDT 8:08 PM EDT
Civil Twilight 6:03 AM EDT 8:34 PM EDT
Nautical Twilight 5:32 AM EDT 9:06 PM EDT
Astronomical Twilight 4:58 AM EDT 9:40 PM EDT
Moon 4:56 AM EDT (5/7) 6:12 PM EDT (5/7)
Length of Visible Light 14h 30m
Length of Day
13h 37m
Waning Crescent, 5% of the Moon is Illuminated
May 7
Waning Crescent
May 9
New
May 18
First Quarter
May 25
Full
May 31
Last Quarter

Hourly Weather History & Observations

Time (EDT) Temp. Dew Point Humidity Pressure Visibility Wind Dir Wind Speed Gust Speed Precip Events Conditions
12:15 AM 60.8 °F 51.8 °F 72% 29.93 in 7.0 mi West 3.5 mph - N/A   Clear
12:35 AM 59.0 °F 51.8 °F 77% 29.94 in 7.0 mi WSW 3.5 mph - N/A   Clear
12:55 AM 59.0 °F 53.6 °F 82% 29.93 in 10.0 mi Calm Calm - N/A   Clear
1:15 AM 59.0 °F 53.6 °F 82% 29.93 in 7.0 mi Calm Calm - N/A   Clear
1:35 AM 59.0 °F 53.6 °F 82% 29.93 in 7.0 mi Calm Calm - N/A   Clear
1:55 AM 59.0 °F 53.6 °F 82% 29.93 in 7.0 mi Calm Calm - N/A   Clear
2:15 AM 59.0 °F 53.6 °F 82% 29.92 in 7.0 mi Calm Calm - N/A   Clear
2:35 AM 57.2 °F 53.6 °F 88% 29.91 in 7.0 mi Calm Calm - N/A   Scattered Clouds
2:55 AM 55.4 °F 53.6 °F 94% 29.92 in 7.0 mi Calm Calm - N/A   Scattered Clouds
3:15 AM 57.2 °F 53.6 °F 88% 29.91 in 7.0 mi Calm Calm - N/A   Clear
3:35 AM 55.4 °F 53.6 °F 94% 29.91 in 7.0 mi Calm Calm - N/A   Clear
4:15 AM 55.4 °F 55.4 °F 100% 29.91 in 7.0 mi Calm Calm - N/A   Clear
4:35 AM 55.4 °F 55.4 °F 100% 29.91 in 7.0 mi Calm Calm - N/A   Scattered Clouds
4:55 AM 55.4 °F 55.4 °F 100% 29.91 in 7.0 mi SSW 3.5 mph - N/A   Clear
5:15 AM 55.4 °F 55.4 °F 100% 29.91 in 7.0 mi Calm Calm - N/A   Scattered Clouds
5:35 AM 55.4 °F 55.4 °F 100% 29.91 in 7.0 mi SW 3.5 mph - N/A   Mostly Cloudy
5:55 AM 59.0 °F 53.6 °F 82% 29.91 in 7.0 mi WSW 5.8 mph - N/A   Mostly Cloudy
6:15 AM 59.0 °F 51.8 °F 77% 29.91 in 7.0 mi SW 3.5 mph - N/A   Scattered Clouds
6:35 AM 59.0 °F 51.8 °F 77% 29.92 in 7.0 mi Calm Calm - N/A   Mostly Cloudy
6:55 AM 59.0 °F 53.6 °F 82% 29.93 in 7.0 mi Calm Calm - N/A   Overcast
7:15 AM 59.0 °F 53.6 °F 82% 29.93 in 7.0 mi WSW 8.1 mph - N/A   Overcast
7:35 AM 59.0 °F 53.6 °F 82% 29.93 in 7.0 mi WSW 4.6 mph - N/A   Overcast
7:55 AM 59.0 °F 55.4 °F 88% 29.93 in 7.0 mi Calm Calm - N/A   Overcast
8:15 AM 60.8 °F 55.4 °F 82% 29.94 in 7.0 mi Calm Calm - N/A   Light Drizzle
8:35 AM 60.8 °F 55.4 °F 82% 29.95 in 7.0 mi Calm Calm - N/A   Overcast
8:55 AM 60.8 °F 55.4 °F 82% 29.96 in 7.0 mi WSW 5.8 mph - N/A   Overcast
9:15 AM 60.8 °F 55.4 °F 82% 29.96 in 7.0 mi WSW 5.8 mph - N/A   Overcast
9:35 AM 60.8 °F 55.4 °F 82% 29.96 in 5.0 mi SW 6.9 mph - N/A   Haze
9:55 AM 64.4 °F 55.4 °F 73% 29.96 in 5.0 mi WSW 9.2 mph - N/A   Haze
10:15 AM 64.4 °F 53.6 °F 68% 29.96 in 7.0 mi West 11.5 mph 18.4 mph N/A Thunderstorm Mostly Cloudy
10:35 AM 64.4 °F 53.6 °F 68% 29.97 in 7.0 mi WSW 9.2 mph - N/A   Mostly Cloudy
10:55 AM 66.2 °F 55.4 °F 68% 29.96 in 10.0 mi West 9.2 mph - N/A   Mostly Cloudy
11:15 AM 66.2 °F 55.4 °F 68% 29.96 in 7.0 mi West 5.8 mph - N/A   Mostly Cloudy
11:35 AM 66.2 °F 53.6 °F 64% 29.96 in 7.0 mi NW 4.6 mph - N/A   Mostly Cloudy
11:55 AM 68.0 °F 53.6 °F 60% 29.96 in 10.0 mi SW 4.6 mph - N/A   Mostly Cloudy
12:15 PM 68.0 °F 53.6 °F 60% 29.96 in 10.0 mi WSW 6.9 mph - N/A   Overcast
12:35 PM 69.8 °F 55.4 °F 60% 29.95 in 10.0 mi WSW 6.9 mph - N/A   Overcast
12:55 PM 68.0 °F 55.4 °F 64% 29.95 in 7.0 mi SW 6.9 mph - N/A   Overcast
1:15 PM 69.8 °F 53.6 °F 56% 29.94 in 7.0 mi SSW 5.8 mph 17.3 mph N/A   Overcast
1:35 PM 68.0 °F 55.4 °F 64% 29.94 in 7.0 mi South 3.5 mph - N/A   Overcast
1:55 PM 68.0 °F 55.4 °F 64% 29.94 in 7.0 mi South 3.5 mph - N/A   Overcast
2:15 PM 60.8 °F 59.0 °F 94% 29.96 in 2.0 mi WNW 5.8 mph 19.6 mph N/A Rain Heavy Rain
2:35 PM 60.8 °F 60.8 °F 100% 29.95 in 10.0 mi Calm Calm - N/A Rain Light Rain
2:55 PM 62.6 °F 59.0 °F 88% 29.94 in 7.0 mi Calm Calm - N/A   Overcast
3:15 PM 64.4 °F 59.0 °F 83% 29.94 in 7.0 mi South 4.6 mph - N/A   Overcast
3:35 PM 66.2 °F 59.0 °F 78% 29.93 in 5.0 mi Calm Calm - N/A   Haze
3:55 PM 68.0 °F 59.0 °F 73% 29.92 in 7.0 mi SSE 6.9 mph - N/A   Mostly Cloudy
4:15 PM 68.0 °F 59.0 °F 73% 29.92 in 7.0 mi South 3.5 mph - N/A   Scattered Clouds
4:35 PM 68.0 °F 59.0 °F 73% 29.91 in 7.0 mi Calm Calm - N/A   Mostly Cloudy
4:55 PM 68.0 °F 57.2 °F 68% 29.91 in 7.0 mi Calm Calm - N/A   Overcast
5:15 PM 69.8 °F 57.2 °F 64% 29.91 in 7.0 mi South 3.5 mph - N/A   Mostly Cloudy
5:35 PM 68.0 °F 59.0 °F 73% 29.91 in 5.0 mi SSE 4.6 mph - N/A   Haze
5:55 PM 68.0 °F 59.0 °F 73% 29.92 in 7.0 mi South 3.5 mph - N/A   Mostly Cloudy
6:15 PM 69.8 °F 59.0 °F 68% 29.92 in 7.0 mi South 3.5 mph - N/A   Mostly Cloudy
6:35 PM 69.8 °F 59.0 °F 68% 29.92 in 7.0 mi Calm Calm - N/A   Scattered Clouds
6:55 PM 68.0 °F 59.0 °F 73% 29.92 in 7.0 mi Calm Calm - N/A   Scattered Clouds
7:15 PM 69.8 °F 53.6 °F 56% 29.93 in 7.0 mi West 6.9 mph - N/A   Clear
7:35 PM 69.8 °F 53.6 °F 56% 29.93 in 7.0 mi West 5.8 mph - N/A   Scattered Clouds
7:55 PM 68.0 °F 53.6 °F 60% 29.94 in 7.0 mi WSW 4.6 mph - N/A   Clear
8:15 PM 62.6 °F 55.4 °F 77% 29.95 in 10.0 mi WSW 3.5 mph - N/A   Clear
8:35 PM 60.8 °F 53.6 °F 77% 29.96 in 10.0 mi WSW 3.5 mph - N/A   Clear
8:55 PM 60.8 °F 53.6 °F 77% 29.96 in 10.0 mi Calm Calm - N/A   Clear
9:15 PM 60.8 °F 53.6 °F 77% 29.97 in 7.0 mi Calm Calm - N/A   Clear
9:35 PM 59.0 °F 53.6 °F 82% 29.97 in 7.0 mi West 3.5 mph - N/A   Clear
9:55 PM 59.0 °F 53.6 °F 82% 29.98 in 7.0 mi Calm Calm - N/A   Clear
10:15 PM 59.0 °F 53.6 °F 82% 29.98 in 7.0 mi West 4.6 mph - N/A   Clear
10:35 PM 59.0 °F 53.6 °F 82% 29.98 in 10.0 mi WSW 3.5 mph - N/A   Clear
10:55 PM 57.2 °F 53.6 °F 88% 29.98 in 10.0 mi WSW 4.6 mph - N/A   Clear
11:15 PM 57.2 °F 53.6 °F 88% 29.98 in 7.0 mi Calm Calm - N/A   Clear
11:35 PM 55.4 °F 53.6 °F 94% 29.99 in 7.0 mi Calm Calm - N/A   Clear
11:55 PM 57.2 °F 55.4 °F 94% 29.99 in 7.0 mi Calm Calm - N/A   Clear